RON185 ANYN-NGTA

Flight info

Callsign RON185
Flight time N/A
Altitude 39000
Route NI A578 BO
Aircraft A339/H-SADE1E2E3GHIJ3J5M1P2RWXY/LB2D1

Departure

Time N/A
Airport Nauru International Airport (ANYN)

Arrival

Time 2026-04-30 18:03
Airport Bonriki International Airport (NGTA)
Time Latitude Longitude Altitude Speed Heading
2026-04-30 17:39 0.86871 171.47151 28382 ft 474 kts 71°
2026-04-30 17:41 0.94115 171.71008 20285 ft 427 kts 73°
2026-04-30 17:42 0.95815 171.76601 18250 ft 414 kts 73°
2026-04-30 17:42 0.98269 171.84626 14986 ft 393 kts 74°
2026-04-30 17:43 0.99835 171.89778 12872 ft 379 kts 75°
2026-04-30 17:44 1.02069 171.97148 9684 ft 360 kts 75°
2026-04-30 17:44 1.04063 172.03729 8402 ft 293 kts 75°
2026-04-30 17:46 1.06832 172.12996 6878 ft 275 kts 75°
2026-04-30 17:47 1.09053 172.20309 6428 ft 275 kts 75°
2026-04-30 17:48 1.11244 172.27530 5946 ft 270 kts 75°
2026-04-30 17:48 1.12878 172.32926 5579 ft 269 kts 76°
2026-04-30 17:49 1.15048 172.40076 5100 ft 268 kts 76°
2026-04-30 17:50 1.17206 172.47167 4627 ft 266 kts 75°
2026-04-30 17:51 1.18806 172.52468 4258 ft 265 kts 75°
2026-04-30 17:52 1.20396 172.57700 3891 ft 261 kts 75°
2026-04-30 17:53 1.23014 172.66351 3295 ft 258 kts 75°
2026-04-30 17:54 1.25089 172.73201 2817 ft 255 kts 75°
2026-04-30 17:55 1.27158 172.80024 2540 ft 256 kts 75°
2026-04-30 17:56 1.29218 172.86831 2521 ft 258 kts 75°
2026-04-30 17:57 1.30756 172.91912 2538 ft 255 kts 75°
2026-04-30 17:58 1.33078 172.96590 2493 ft 256 kts 38°
2026-04-30 17:59 1.39975 172.97860 2450 ft 244 kts 32°
2026-04-30 18:00 1.40619 173.02681 2090 ft 168 kts 126°
2026-04-30 18:00 1.39365 173.05368 1670 ft 128 kts 104°
2026-04-30 18:01 1.39074 173.07251 1670 ft 138 kts 98°
2026-04-30 18:02 1.38768 173.10111 1070 ft 145 kts 97°
2026-04-30 18:02 1.38425 173.13041 274 ft 145 kts 97°
2026-04-30 18:03 1.38124 173.14736 20 ft 0 kts 163°